Find Geely Xingzuo 05 zu 11 xing

NORAD ID: 65560 Int'l Des: 2025-201 Owner: GEESP Country: CN Constellation: geesatcom operational
LEOCIRCULAR

Live Position

Loading 3D Globe...

About Geely Xingzuo 05 zu 11 xing

Description loading...

Upcoming Passes

Passes for default location (London). Set your location on the main map for personalized predictions.

Altitude History

Loading altitude history...

Two-Line Element Set

1 65560U 25201L 26105.98889167 .00000893 00000-0 13342-3 0 9998
2 65560 49.9886 327.3648 0008867 102.8305 257.3625 14.83948898 32589
Epoch: Apr 15, 2026 • Age: 17 hours

Current Status

Altitude 639.4 km
Velocity 7.54 km/s
Sub-Earth Point -49.63°S, 122.15°E
Launch Date Sep 8, 2025
Age 0.6 years
Type other

Technical Details

Classification Payload
Mass 130.00 kg
Dry Mass 130.00 kg
Total Mass 130.00 kg
Length 1.00 m
Diameter 0.50 m
Span 2.00 m
Shape Box + 2 pan
Manufacturer GWCG
Bus Type GPS100
Phase Status In Orbit
Owner/State GEESP/CN

Most Searched